Location: Fort Worth, Tx
(32.7431°N, 97.3695°W)
Time: 09:48:46
(UTC-04:00)

Courier 1B - Pass Details

Date: 29 February 2024
Orbit: 962 x 1208 km, 28.3° (Epoch: 24 April)

Event Time Altitude Azimuth Distance (km) Brightness Sun altitude
Exits shadow 04:51:57 12° 140° (SE) 2,611 9.9 -39.5°
Drops below altitude 10° 04:52:22 10° 138° (SE) 2,741 10.0 -39.4°
Sets 04:55:20 0° 129° (SE) 3,721 10.9 -38.8°
